Aérodrome :
LOGIN :

S'inscrire | Disclaimer

   EN    FR    IT 

 










Légende :    VFR   VFR Marginal   IFR   IFR Intensif   IFR Très Intensif
Visi : 
Plafond : 
>= 8 km
>= 3000ft
5 à 8 km
1000 à 3000 ft
1500m à 5 km
500 à 1000 ft
800 à 1500m
200 à 500 ft
< 800m
< 200 ft
Symboles :   Orages  Brouillard  Fortes neiges  Fortes précipitations  Vent > 20 kt
SIGMETs :   Divers  Orages  Givrage  Turbulence  Onde Orograph.  Cendres Volcan.







- Altitude de l'aérodrome : 239 ft
- Code IATA : VRN


LIPX - Villafranca Int. Verona

DERNIER METAR :
  • 221550Z 09002KT 5000 BR BKN050 10/04 Q1020

METARs EXPIRÉS :
  • 221520Z 09002KT 5000 BR BKN050 10/04 Q1020
  • 221450Z 10003KT 6000 BKN050 11/04 Q1020
  • 221420Z VRB02KT 7000 SCT060 11/04 Q1020
  • 221350Z 10003KT 040V160 8000 FEW070 11/03 Q1020
  • 221320Z VRB02KT 8000 FEW070 11/04 Q1020

TAF TAF LIPX
Valide du 22 à 15h jusqu'au 23 à 00h UTC


221400Z 2215/2224 VRB05KT 7000 SCT050
Pas de NOTAMs connus pour ce terrain.



MET'MAP, la Météo Aéronautique d'un coup d'oeil ! - Copyright ORBIFLY Décembre 2007 - Disclaimer

ORBIFLY MET'MAP TEAM :

Programmation & Développement : Alexandra Zaïnal
Conception & Développement : Baudouin d'Aumeries
Co-Programmation & Développement : Marc-Olivier Méhu
Soutien technique & logistique : Manuel Goepfert

Contact : metmap@orbifly.com




SOURCES & CREDITS :

   NOAA